Вернуться в каталог

SL-14 R/B

АктивенPO
NORAD 21305·ROCKET BODY·🇷🇺 Russia

Запущен May 16, 1991 с Plesetsk Cosmodrome

Loading…

Ближайшие Пролёты (ближайшие 24 часа)

TLE

СвежийSource: Space-Track

Эпоха: Sep 14, 2026, 14:24 UTC

1 21305U 91033G   26257.60044572  .00000010  00000-0 -79766-6 0  9990
2 21305  82.5705  11.8517 0037996 185.2124 185.6021 12.54826781618215

Отслеживайте SL-14 R/B в реальном времени с AllMySat

Download on the App Store